Home   Weather   Hofheim am Taunus   Past weeks

Flag for Germany Past Weather in Hofheim am Taunus, Hesse, Germany — Yesterday and Last 2 Weeks

Now
61 °F

Broken clouds.


Feels Like: 61 °F
Forecast: 53 / 70 °F
Wind: 10 mph from North

Location: Wiesbaden Airport

Current Time: Sep 26, 2016 at 10:53:04 AM

Latest Report: Sep 26, 2016 at 9:58 AM


Visibility: N/A

Pressure: 30.21 "Hg

Humidity: 62%

Dew Point: 48 °F

Location of Hofheim am TaunusLocation

Past Weather in Hofheim am Taunus — Graph

°F

Hofheim am Taunus Temperature Yesterday

Maximum temperature yesterday: 75 °F (at 4:58 PM)
Minimum temperature yesterday: 46 °F (at 7:58 AM)
Average temperature yesterday: 61 °F

High & Low Weather Summary for the Past Weeks

 TemperatureHumidityPressure
High90 °F (Sep 13, 4:58 PM)87% (Sep 24, 6:58 AM)30.34 "Hg (Sep 24, 6:58 AM)
Low45 °F (Sep 22, 5:58 AM)21% (Sep 11, 4:58 PM)29.82 "Hg (Sep 15, 3:58 AM)
Average65 °F56%30.05 "Hg
* Reported Sep 11 9:58 AM — Sep 26 9:00 AM, Hofheim am Taunus, Weather by CustomWeather, © 2016

Note: Actual official high and low records may vary slightly from our data, if they occured in-between our weather recording intervals... More about our weather records

Advertising

Hofheim am Taunus Weather History for the Previous 24 Hours

Scroll right to see more
 ConditionsComfort  
Time TempWeatherWind HumidityBarometerVisibility
9:00 AM
Mon, Sep 26
61 °FOvercast.7 mph63%30.21 "HgN/A
8:58 AM60 °FPartly sunny.10 mph65%30.20 "HgN/A
7:58 AM59 °FPartly sunny.12 mph64%30.19 "HgN/A
6:58 AM59 °FPartly cloudy.10 mph63%30.18 "HgN/A
5:58 AM59 °FPartly cloudy.7 mph63%30.17 "HgN/A
4:58 AM61 °FPassing clouds.5 mph59%30.17 "HgN/A
3:58 AM60 °FPassing clouds.8 mph60%30.15 "HgN/A
2:58 AM61 °FPassing clouds.12 mph61%30.16 "HgN/A
1:58 AM63 °FClear.9 mph64%30.14 "HgN/A
12:58 AM64 °FClear.12 mph60%30.13 "HgN/A
11:58 PM
Sun, Sep 25
65 °FClear.14 mph62%30.12 "HgN/A
10:58 PM59 °FPassing clouds.No wind72%30.11 "HgN/A
9:58 PM61 °FClear.1 mph68%30.10 "HgN/A
8:58 PM64 °FClear.1 mph60%30.09 "HgN/A
7:58 PM70 °FClear.2 mph49%30.09 "HgN/A
6:58 PM71 °FSunny.3 mph49%30.07 "HgN/A
5:58 PM75 °FSunny.7 mph42%30.07 "HgN/A
4:58 PM75 °FSunny.7 mph41%30.06 "HgN/A
3:58 PM74 °FSunny.6 mph42%30.07 "HgN/A
2:58 PM72 °FSunny.7 mph46%30.08 "HgN/A
1:58 PM70 °FSunny.8 mph48%30.09 "HgN/A
12:58 PM68 °FSunny.5 mph49%30.11 "HgN/A
11:58 AM64 °FSunny.6 mph56%30.12 "HgN/A
10:58 AM62 °FSunny.2 mph58%30.13 "HgN/A
Weather by CustomWeather, © 2016

See weather overviewHow to use our weather pages